When you browse on this site, cookies collect data to enhance your experience and personalize the content and advertising you see.
Visit our Privacy Policy to learn more. By continuing to use the site, you agree to this use of cookies and data.
  • In Sweden
  • List of Countries
  • For 7 days
  • Water Temperature
  • Weather Map
  • Weather Widgets
  • user-avatar
    Login

    Hourly Weather South Euclid

    Today, 13 December, Friday

    Time Temperature Precipitation Wind Pressure Humidity
    00:00 -3°C° 0 mm 7 mps 741 mmHg 60%
    01:00 -3°C° 0 mm 6 mps 740 mmHg 54%
    02:00 -3°C° 0 mm 6 mps 740 mmHg 57%
    03:00 -3°C° 0 mm 6 mps 739 mmHg 61%
    04:00 -4°C° 0 mm 5 mps 739 mmHg 64%
    05:00 -4°C° 0 mm 6 mps 738 mmHg 65%
    06:00 -4°C° 0 mm 6 mps 738 mmHg 66%
    07:00 -4°C° 0 mm 5 mps 738 mmHg 65%
    08:00 -2°C° 0 mm 5 mps 738 mmHg 62%
    09:00 -1°C° 0 mm 5 mps 738 mmHg 60%
    10:00 -1°C° 0 mm 5 mps 738 mmHg 58%
    11:00 0°C° 0 mm 4 mps 737 mmHg 59%
    12:00 +1°C° 0 mm 4 mps 737 mmHg 60%
    13:00 +2°C° 0 mm 3 mps 736 mmHg 61%
    14:00 +2°C° 0 mm 3 mps 735 mmHg 65%
    15:00 +2°C° 0 mm 3 mps 734 mmHg 70%
    16:00 +3°C° 0 mm 2 mps 734 mmHg 74%
    17:00 +2°C° 0 mm 2 mps 734 mmHg 81%
    18:00 +1°C° 0 mm 3 mps 733 mmHg 87%
    19:00 0°C° 0 mm 3 mps 733 mmHg 94%
    20:00 +1°C° 0 mm 2 mps 732 mmHg 95%
    21:00 +1°C° 0 mm 2 mps 732 mmHg 95%
    22:00 +2°C° 0 mm 1 mps 731 mmHg 96%
    23:00 +2°C° 0 mm 1 mps 730 mmHg 96%

    Tomorrow, 14 December, Saturday

    Time Temperature Precipitation Wind Pressure Humidity
    00:00 +2°C° 0 mm 1 mps 730 mmHg 96%
    01:00 +3°C° 0 mm 1 mps 729 mmHg 97%
    02:00 +2°C° 0.2 mm 2 mps 728 mmHg 97%
    03:00 +2°C° 0.2 mm 2 mps 727 mmHg 98%
    04:00 +2°C° 0.2 mm 2 mps 726 mmHg 98%
    05:00 +1°C° 0.6 mm 3 mps 726 mmHg 98%
    06:00 0°C° 0.6 mm 4 mps 725 mmHg 97%
    07:00 +1°C° 0.6 mm 5 mps 725 mmHg 97%
    08:00 +1°C° 1.1 mm 5 mps 724 mmHg 97%
    09:00 0°C° 1.1 mm 5 mps 724 mmHg 97%
    10:00 0°C° 1.1 mm 4 mps 723 mmHg 97%
    11:00 0°C° 0.7 mm 5 mps 723 mmHg 97%
    12:00 0°C° 0.7 mm 5 mps 723 mmHg 97%
    13:00 -1°C° 0.7 mm 6 mps 723 mmHg 96%
    14:00 -1°C° 0.3 mm 6 mps 723 mmHg 95%
    15:00 -1°C° 0.3 mm 6 mps 723 mmHg 94%
    16:00 0°C° 0.3 mm 5 mps 723 mmHg 92%
    17:00 -1°C° 0 mm 6 mps 724 mmHg 91%
    18:00 -1°C° 0 mm 6 mps 724 mmHg 90%
    19:00 -1°C° 0 mm 6 mps 725 mmHg 88%
    20:00 -1°C° 0 mm 6 mps 725 mmHg 91%
    21:00 -2°C° 0 mm 6 mps 725 mmHg 93%
    22:00 -2°C° 0 mm 6 mps 725 mmHg 95%
    23:00 -2°C° 0.1 mm 7 mps 726 mmHg 95%

    Day after tomorrow, 15 December, Sunday

    Time Temperature Precipitation Wind Pressure Humidity
    00:00 -2°C° 0.1 mm 8 mps 726 mmHg 95%
    01:00 -2°C° 0.1 mm 8 mps 727 mmHg 94%
    02:00 -4°C° 0.1 mm 8 mps 727 mmHg 92%
    03:00 -5°C° 0.1 mm 8 mps 728 mmHg 90%
    04:00 -6°C° 0.1 mm 8 mps 728 mmHg 87%
    05:00 -6°C° 0.1 mm 8 mps 729 mmHg 86%
    06:00 -6°C° 0.1 mm 8 mps 730 mmHg 86%
    07:00 -6°C° 0.1 mm 7 mps 731 mmHg 85%
    08:00 -6°C° 0.1 mm 7 mps 732 mmHg 84%
    09:00 -6°C° 0.1 mm 7 mps 733 mmHg 82%
    10:00 -6°C° 0.1 mm 7 mps 733 mmHg 81%
    11:00 -4°C° 0.1 mm 7 mps 734 mmHg 79%
    12:00 -4°C° 0.1 mm 7 mps 734 mmHg 77%
    13:00 -4°C° 0.1 mm 7 mps 735 mmHg 75%
    14:00 -4°C° 0 mm 6 mps 735 mmHg 74%
    15:00 -4°C° 0 mm 5 mps 735 mmHg 74%
    16:00 -4°C° 0 mm 5 mps 736 mmHg 73%
    17:00 -3°C° 0 mm 4 mps 736 mmHg 75%
    18:00 -4°C° 0 mm 3 mps 736 mmHg 76%
    19:00 -3°C° 0 mm 2 mps 737 mmHg 78%
    20:00 -3°C° 0 mm 2 mps 737 mmHg 78%
    21:00 -3°C° 0 mm 2 mps 737 mmHg 79%
    22:00 -2°C° 0 mm 1 mps 738 mmHg 79%
    23:00 -1°C° 0 mm 1 mps 738 mmHg 79%

    16 December, Monday

    Time Temperature Precipitation Wind Pressure Humidity
    00:00 -1°C° 0 mm 1 mps 738 mmHg 79%
    01:00 -1°C° 0 mm 1 mps 738 mmHg 78%
    02:00 -3°C° 0 mm 2 mps 737 mmHg 79%
    03:00 -3°C° 0 mm 2 mps 736 mmHg 80%
    04:00 -4°C° 0 mm 3 mps 736 mmHg 80%
    05:00 -4°C° 0.1 mm 3 mps 736 mmHg 84%
    06:00 -4°C° 0.1 mm 3 mps 736 mmHg 88%
    07:00 -4°C° 0.1 mm 3 mps 736 mmHg 92%
    08:00 -4°C° 0.1 mm 3 mps 735 mmHg 91%
    09:00 -2°C° 0.1 mm 3 mps 735 mmHg 90%
    10:00 -2°C° 0.1 mm 3 mps 735 mmHg 89%
    11:00 -3°C° 0.1 mm 4 mps 733 mmHg 89%
    12:00 -2°C° 0.1 mm 4 mps 732 mmHg 89%
    13:00 -2°C° 0.1 mm 4 mps 731 mmHg 88%
    14:00 -2°C° 0.9 mm 4 mps 730 mmHg 91%
    15:00 -2°C° 0.9 mm 4 mps 730 mmHg 94%
    16:00 -1°C° 0.9 mm 3 mps 729 mmHg 97%
    17:00 -1°C° 0.3 mm 3 mps 729 mmHg 97%
    18:00 0°C° 0.3 mm 3 mps 729 mmHg 98%
    19:00 0°C° 0.3 mm 3 mps 729 mmHg 98%
    20:00 -1°C° 0.2 mm 4 mps 729 mmHg 98%
    21:00 -1°C° 0.2 mm 4 mps 729 mmHg 98%
    22:00 -2°C° 0.2 mm 5 mps 729 mmHg 98%
    23:00 -2°C° 0.4 mm 5 mps 729 mmHg 97%

    17 December, Tuesday

    Time Temperature Precipitation Wind Pressure Humidity
    00:00 -4°C° 0.4 mm 6 mps 730 mmHg 96%
    01:00 -5°C° 0.4 mm 6 mps 731 mmHg 95%
    02:00 -5°C° 0.2 mm 6 mps 731 mmHg 95%
    03:00 -5°C° 0.2 mm 5 mps 732 mmHg 94%
    04:00 -5°C° 0.2 mm 5 mps 733 mmHg 94%
    05:00 -5°C° 0.1 mm 5 mps 733 mmHg 91%
    06:00 -5°C° 0.1 mm 5 mps 734 mmHg 89%
    07:00 -5°C° 0.1 mm 6 mps 734 mmHg 86%
    08:00 -5°C° 0 mm 6 mps 735 mmHg 86%
    09:00 -6°C° 0 mm 6 mps 735 mmHg 86%
    10:00 -7°C° 0 mm 7 mps 735 mmHg 86%
    11:00 -6°C° 0 mm 7 mps 735 mmHg 83%
    12:00 -6°C° 0 mm 7 mps 735 mmHg 80%
    13:00 -4°C° 0 mm 7 mps 734 mmHg 77%
    14:00 -4°C° 0 mm 7 mps 734 mmHg 75%
    15:00 -6°C° 0 mm 7 mps 734 mmHg 74%
    16:00 -6°C° 0 mm 7 mps 733 mmHg 72%
    17:00 -6°C° 0 mm 8 mps 733 mmHg 77%
    18:00 -8°C° 0 mm 9 mps 733 mmHg 82%
    19:00 -8°C° 0 mm 9 mps 733 mmHg 87%
    20:00 -9°C° 0.2 mm 9 mps 733 mmHg 87%
    21:00 -9°C° 0.2 mm 10 mps 734 mmHg 88%
    22:00 -9°C° 0.2 mm 10 mps 734 mmHg 88%
    23:00 -10°C° 0.1 mm 9 mps 734 mmHg 84%

    18 December, Wednesday

    Time Temperature Precipitation Wind Pressure Humidity
    00:00 -10°C° 0.1 mm 9 mps 734 mmHg 81%
    01:00 -11°C° 0.1 mm 9 mps 735 mmHg 77%
    02:00 -12°C° 0.1 mm 9 mps 735 mmHg 78%
    03:00 -14°C° 0.1 mm 9 mps 736 mmHg 79%
    04:00 -14°C° 0.1 mm 9 mps 736 mmHg 80%
    05:00 -15°C° 0.1 mm 9 mps 737 mmHg 81%
    06:00 -15°C° 0.1 mm 9 mps 737 mmHg 81%
    07:00 -16°C° 0.1 mm 8 mps 738 mmHg 82%
    08:00 -16°C° 0.1 mm 8 mps 739 mmHg 81%
    09:00 -16°C° 0.1 mm 8 mps 740 mmHg 81%
    10:00 -16°C° 0.1 mm 8 mps 740 mmHg 80%
    11:00 -14°C° 0.1 mm 7 mps 741 mmHg 79%
    12:00 -14°C° 0.1 mm 7 mps 741 mmHg 77%
    13:00 -14°C° 0.1 mm 7 mps 741 mmHg 76%
    14:00 -14°C° 0 mm 7 mps 741 mmHg 77%
    15:00 -14°C° 0 mm 6 mps 742 mmHg 78%
    16:00 -14°C° 0 mm 6 mps 742 mmHg 79%
    17:00 -13°C° 0.1 mm 5 mps 743 mmHg 82%
    18:00 -13°C° 0.1 mm 5 mps 743 mmHg 85%
    19:00 -14°C° 0.1 mm 4 mps 743 mmHg 89%
    20:00 -14°C° 0.1 mm 4 mps 743 mmHg 88%
    21:00 -14°C° 0.1 mm 4 mps 744 mmHg 87%
    22:00 -15°C° 0.1 mm 4 mps 744 mmHg 87%
    23:00 -14°C° 0 mm 4 mps 743 mmHg 87%
    Show more